{"data":{"norad_id":49199,"epoch":"2026-09-20T01:22:43.761216Z","epoch_age_seconds":60166,"freshness":"FRESH","line1":"1 49199U 21083P   26263.05745094 -.00000248  00000+0 -71412-3 0  9992","line2":"2 49199  87.8913 301.3564 0001935  94.8657 265.2693 13.13470453243361","mean_motion":13.13470453,"eccentricity":0.0001935,"inclination_deg":87.8913,"raan_deg":301.3564,"arg_perigee_deg":94.8657,"mean_anomaly_deg":265.2693,"bstar":-0.0007141199999999999,"rev_number":24336,"period_min":109.63322370222,"perigee_km":1208.2953964731,"apogee_km":1211.2319140267,"semimajor_km":7587.9006552499,"source":"CELESTRAK","updated_at":"2026-09-20T09:00:44.663062Z"}}